Temperature
15 15 15 15 15 15 15 15 15 15 15 15 15 15 15 15 15 15 15 16 16 16 16 16 16 16 16 16 16 17 17 17 17 17 17 17 17 17 17 17 17 17 17
15 15 15 15 15 15 15 15 15 15 15 15 15 15 15 15 15 15 15 15 15 15 16 16 16 16 16 16 16 16 17 17 17 17 17 17 17 17 17 17 17 17 17
15 15 15 15 15 15 15 15 15 15 15 15 15 15 15 15 15 15 15 15 15 15 15 16 16 16 16 16 16 16 16 17 17 17 17 17 17 17 17 17 17 17 17
15 15 15 15 15 15 15 15 15 15 15 15 15 15 15 15 15 15 15 15 15 15 15 15 15 16 16 16 16 16 16 16 17 17 17 17 17 17 17 17 17 17 17
15 15 15 15 15 15 15 15 15 15 15 15 15 15 15 15 15 15 15 15 15 15 15 15 15 15 16 16 16 16 16 16 16 16 17 17 17 17 17 17 17 17 17
15 15 15 15 15 15 15 15 15 15 15 15 15 15 15 15 15 15 15 15 15 15 15 15 15 15 15 16 16 16 16 16 16 16 16 16 16 16 17 17 17 17 17
15 15 15 15 15 15 15 15 15 15 15 15 15 15 14 14 14 14 14 14 14 15 15 15 15 15 15 15 16 16 16 16 16 16 16 16 16 16 16 17 17 17 17
15 15 15 15 15 15 15 15 15 15 15 15 15 15 14 14 14 14 14 14 14 14 15 15 15 15 15 15 15 15 16 16 16 16 16 16 16 16 16 16 16 16 16
15 15 15 15 15 15 15 15 15 15 15 15 15 15 15 14 13 13 14 14 14 14 14 14 14 15 15 15 15 15 15 15 15 16 16 16 16 16 16 16 16 16 16
15 15 15 15 15 15 15 15 15 15 15 15 15 15 15 14 14 13 13 13 14 14 14 14 14 14 14 14 15 15 15 15 15 15 15 15 15 16 16 16 16 16 16
15 15 15 15 15 15 15 15 15 15 15 15 15 15 15 14 14 14 13 13 13 13 13 13 14 14 14 14 14 14 14 15 15 15 15 15 15 15 15 16 16 15 16
15 15 15 15 15 15 15 15 15 15 15 15 15 15 15 15 14 14 14 13 13 13 13 13 13 13 14 14 14 14 14 14 14 14 14 15 15 15 15 15 15 15 15
15 15 15 15 15 15 14 14 14 14 14 14 14 14 14 14 14 14 14 14 13 13 13 13 13 13 13 13 13 13 14 14 14 14 14 14 14 14 15 15 15 15 15
15 15 15 15 15 14 14 14 14 14 14 14 14 14 14 14 14 14 14 14 13 13 13 12 12 13 13 13 13 13 13 13 13 14 14 14 14 14 14 14 14 14 14
15 15 15 15 15 14 14 14 14 14 14 14 14 14 14 14 14 14 14 14 14 13 12 12 12 12 12 13 13 13 13 13 13 13 13 13 13 14 14 14 14 14 14
15 15 15 15 15 14 14 14 14 14 14 14 14 14 14 14 14 14 14 14 14 13 13 12 12 12 12 12 12 13 13 13 13 13 13 13 13 13 13 13 13 13 13
15 15 15 15 15 15 14 14 14 14 14 14 14 14 14 14 14 14 14 14 13 13 13 12 12 12 12 12 12 12 12 13 13 13 13 13 13 13 13 13 13 13 13
15 15 15 15 15 15 14 14 14 14 14 14 14 14 14 13 13 13 13 13 13 13 13 12 12 12 12 12 12 12 12 12 12 12 12 12 12 12 12 12 12 12 13
15 15 15 15 15 14 14 14 14 14 14 14 13 13 13 13 13 13 13 13 13 12 12 12 12 12 12 12 12 12 12 12 12 12 12 12 12 12 12 12 12 12 12
15 15 15 15 15 14 14 14 14 14 14 13 13 13 13 13 13 13 13 12 12 12 12 12 12 12 12 12 12 12 12 12 12 11 11 11 11 11 11 11 11 11 11
15 15 15 15 14 14 14 14 14 14 13 13 13 13 13 13 13 13 13 12 12 12 12 12 12 12 12 12 12 11 12 11 11 11 11 11 11 11 11 11 11 11 11
15 15 15 15 14 14 14 14 13 13 13 13 13 13 13 13 12 12 12 12 12 12 12 12 11 11 11 11 11 11 11 11 11 11 11 10 10 10 10 10 10 10 10
15 15 15 15 14 14 14 13 13 13 13 13 13 13 12 12 12 12 12 12 12 12 11 11 11 11 11 11 11 11 10 10 10 10 10 10 10 10 10 10 10 10 10
16 15 15 15 14 14 14 13 13 13 13 13 13 12 12 12 12 12 12 12 11 11 11 11 11 11 10 10 10 10 10 10 10 10 10 10 10 10 10 9 9 9 9
16 15 15 14 14 14 14 13 13 13 13 12 12 12 12 12 12 12 11 11 11 11 11 11 10 10 10 10 10 9 9 9 9 9 9 9 9 9 9 9 9 9 9
15 15 15 14 14 14 13 13 13 13 12 12 12 12 12 11 11 11 11 11 11 11 10 10 10 10 10 9 9 9 9 9 8 8 8 8 8 8 8 8 8 8 8
Wind_Speed
4 5 5 7 7 7 6 5 6 6 6 7 8 8 7 8 8 9 9 12 12 11 11 10 10 10 10 10 10 10 9 8 7 6 5 4 3 2 1 1 1 1 2
5 4 4 5 7 7 6 6 6 5 5 6 7 8 8 8 9 10 10 12 14 13 12 11 11 11 11 11 11 11 10 9 8 7 6 5 4 3 2 1 1 1 2
6 5 4 4 6 7 8 8 7 7 6 6 7 7 7 8 9 10 11 12 12 13 14 13 13 12 12 12 11 11 11 10 9 8 8 7 5 4 2 1 1 2 2
7 7 5 5 7 8 7 5 5 6 6 6 6 6 6 7 9 10 11 12 11 11 13 15 15 14 13 13 12 12 11 10 9 9 9 8 7 5 4 2 2 2 2
9 8 6 5 7 7 5 4 5 4 5 6 6 7 7 6 7 9 10 11 12 13 12 13 15 16 15 15 14 14 13 12 10 10 9 10 9 7 5 3 2 2 2
9 8 7 7 7 5 5 5 6 6 5 5 8 8 7 6 7 8 8 10 12 13 14 14 13 13 16 17 16 15 14 13 11 10 10 10 10 9 7 5 3 3 2
9 8 6 6 6 5 5 5 4 6 5 3 5 5 6 7 8 7 8 8 10 13 15 15 14 14 13 16 17 17 16 13 11 11 11 10 11 10 10 8 7 5 3
8 7 6 5 5 5 6 5 4 3 4 4 3 3 3 5 6 8 7 7 8 11 12 14 15 15 15 14 16 18 17 15 13 12 11 11 11 11 11 11 10 9 7
9 8 8 6 5 5 5 5 4 4 3 4 4 3 3 2 2 4 6 7 7 7 8 11 14 15 15 15 16 18 19 18 16 14 13 13 12 12 12 12 11 11 10
8 8 8 7 6 5 5 4 4 3 4 3 3 4 3 3 3 2 4 5 7 8 8 9 11 14 15 15 16 19 20 19 19 18 16 14 13 13 13 12 12 12 12
7 8 7 7 6 5 5 5 5 5 3 3 2 2 4 4 3 3 2 3 4 5 6 8 10 12 15 15 16 18 20 20 20 19 18 17 15 14 14 13 13 13 13
4 6 6 6 6 5 5 5 5 6 5 5 4 3 2 2 2 3 3 2 3 4 4 6 9 11 13 14 16 19 20 20 20 20 19 19 18 17 16 15 14 14 14
2 3 4 4 4 5 6 6 6 6 5 5 5 3 3 2 2 3 4 2 2 3 4 4 8 11 12 14 15 17 19 19 19 20 19 18 19 19 17 16 16 15 14
1 2 4 5 5 6 6 6 5 5 5 6 6 4 4 3 2 2 3 3 3 3 4 4 4 9 11 13 14 16 16 18 18 18 19 18 18 18 18 17 16 16 16
2 3 4 5 5 6 6 6 5 5 5 5 5 5 4 3 3 3 2 3 4 2 2 3 4 6 10 12 14 14 15 17 18 18 18 18 17 18 18 18 18 17 17
3 4 4 4 4 5 5 5 4 4 6 5 4 5 5 3 4 3 3 3 2 3 2 1 2 3 7 8 13 14 14 16 18 18 17 17 17 17 17 18 18 17 17
3 3 3 4 4 4 4 5 5 5 6 5 5 6 5 4 4 4 4 4 3 3 4 1 2 3 5 6 10 12 13 14 15 18 17 17 16 16 17 16 16 16 16
3 4 4 4 3 3 3 4 4 4 5 4 4 5 4 4 5 4 4 4 3 2 3 2 2 3 4 4 6 7 10 11 12 15 16 16 16 16 16 16 15 15 15
4 4 4 4 3 3 3 3 4 4 4 3 3 3 3 4 4 3 4 4 3 3 3 3 1 2 2 3 4 4 6 7 9 11 13 14 15 15 15 15 15 15 15
5 4 3 3 3 3 3 3 4 4 3 3 2 2 3 3 4 3 3 3 3 4 4 3 2 2 2 3 3 3 4 4 5 8 10 10 12 13 13 14 14 15 14
5 4 4 3 3 3 3 4 4 4 4 3 3 2 2 3 4 3 3 3 4 3 3 2 1 2 2 3 3 2 3 4 3 4 4 7 8 9 10 11 12 13 13
5 4 4 4 3 2 4 7 6 5 4 4 2 1 1 2 3 4 4 4 5 4 3 2 1 0 1 2 1 2 2 3 3 3 3 4 4 4 7 8 10 11 11
5 5 4 4 3 3 5 7 7 5 4 3 3 2 1 2 3 3 3 4 3 2 3 4 3 3 2 3 1 1 1 1 2 4 2 3 2 3 6 7 9 10 10
5 5 4 4 3 3 5 7 7 5 3 2 2 3 3 1 1 3 3 2 1 1 0 2 3 4 4 4 3 2 2 2 3 3 1 1 3 3 5 8 8 9 10
5 5 4 5 5 4 5 7 7 4 3 2 2 2 3 3 3 4 4 2 0 2 1 1 2 2 3 3 2 1 1 1 2 3 1 1 3 4 4 4 8 10 11
6 6 4 4 5 4 6 8 8 4 3 2 1 2 4 4 5 4 4 3 2 3 2 1 2 2 3 3 2 2 2 1 1 3 2 1 2 3 4 3 5 10 11
Wind_Direction
36 34 32 34 33 37 46 50 52 55 56 57 58 59 55 54 53 49 42 47 50 54 59 60 56 53 49 44 41 37 34 35 38 36 29 21 23 34 68 111 121 156 180
52 47 39 36 33 35 48 58 59 63 59 61 56 54 56 53 52 51 48 46 49 51 54 55 53 51 48 42 40 36 34 34 36 35 34 33 35 35 48 72 136 124 145
59 57 47 38 31 43 58 64 61 63 63 60 52 49 55 57 56 53 51 48 47 48 49 49 50 49 45 41 39 37 33 31 32 33 33 33 33 39 47 66 101 125 130
61 61 52 35 36 52 59 63 57 66 61 61 57 46 47 52 53 54 52 47 45 44 44 47 46 44 41 39 39 35 32 30 31 35 36 35 36 43 51 66 96 124 141
58 63 55 40 46 54 52 65 58 71 73 69 67 54 45 47 46 51 49 46 45 44 44 42 43 41 37 36 36 35 33 31 32 38 41 39 37 39 38 46 90 115 143
58 62 57 44 50 58 51 57 71 64 67 71 77 63 49 45 47 42 42 45 45 46 44 41 38 35 35 34 33 33 32 33 36 40 44 43 38 33 31 41 65 84 122
59 62 57 47 48 60 60 64 79 71 53 42 76 62 45 45 48 39 38 40 38 39 41 40 38 35 31 30 30 31 30 32 39 43 45 44 41 34 39 49 56 57 79
55 64 61 54 48 60 57 53 69 82 48 30 79 84 51 30 27 30 33 38 32 35 37 37 37 35 32 29 25 29 30 33 41 45 46 45 44 42 43 46 48 52 60
57 63 64 62 53 59 63 55 62 88 87 42 48 108 115 121 37 16 28 34 31 32 27 32 34 32 31 30 28 29 33 35 40 44 46 46 47 46 45 45 48 53 56
52 59 63 62 58 56 59 54 61 77 101 86 50 47 84 131 125 63 12 19 31 34 27 28 27 28 29 30 31 32 36 39 42 43 44 45 47 49 48 47 49 53 56
43 51 62 65 61 59 59 59 60 65 74 92 88 77 69 62 69 110 70 5 19 21 23 21 23 23 24 27 30 34 37 40 43 44 43 42 44 47 47 48 49 52 56
30 39 58 64 66 66 61 63 65 67 68 78 78 75 93 95 92 102 108 54 25 356 6 19 23 17 21 25 30 35 39 41 43 44 43 42 42 43 45 47 49 51 55
37 23 50 60 65 70 69 69 66 62 62 74 76 74 74 81 113 117 118 111 54 3 360 8 14 17 21 24 26 33 38 40 42 42 42 42 42 42 43 44 47 49 51
93 61 68 68 69 75 76 72 66 60 62 68 71 74 72 60 81 116 132 131 84 27 21 356 346 10 13 23 26 34 35 40 41 41 41 43 44 45 44 44 44 45 46
110 90 84 76 71 75 77 78 70 62 65 62 66 71 69 56 60 68 99 124 133 106 19 345 347 349 6 25 28 33 35 38 40 40 41 43 45 46 46 46 46 44 44
108 103 92 87 80 76 78 78 73 66 71 58 61 69 61 50 56 58 73 79 101 135 124 336 333 333 2 25 29 32 35 38 39 40 42 44 47 48 47 46 45 43 42
129 125 118 109 102 91 88 89 84 80 79 66 59 70 62 55 62 54 66 75 76 102 121 1 341 344 8 14 16 27 33 37 38 39 41 43 45 46 46 45 44 41 39
134 130 122 116 113 109 104 107 105 95 95 89 77 76 67 69 62 55 66 71 75 85 122 107 0 358 2 356 4 17 24 29 33 35 39 42 44 44 43 42 41 40 37
134 125 122 126 127 125 119 115 115 108 106 104 100 96 88 87 75 68 72 73 69 72 84 110 37 355 347 352 358 7 14 14 21 24 33 37 39 40 39 37 37 36 35
144 141 134 135 136 131 127 125 121 113 103 92 92 103 110 114 120 111 93 91 89 78 74 83 59 4 347 335 7 7 0 359 360 9 19 23 27 31 32 32 32 31 29
152 146 137 131 130 138 152 146 138 130 118 99 79 81 120 133 134 134 126 130 117 104 91 83 59 16 352 354 351 338 349 336 345 4 0 3 9 15 15 18 21 20 20
143 140 147 149 154 168 162 158 148 138 135 130 120 80 77 98 107 108 117 132 139 138 145 139 148 195 286 282 297 328 339 360 341 343 358 336 358 355 354 1 5 8 11
153 152 157 157 170 193 170 159 157 142 143 152 156 148 116 94 96 96 92 87 85 119 159 160 171 212 227 233 222 305 302 271 273 297 342 315 327 325 330 339 350 357 360
162 166 169 171 173 201 179 163 157 139 141 159 176 175 165 173 159 140 123 91 45 358 216 171 191 218 225 225 205 203 220 262 282 297 316 298 311 304 311 316 328 340 344
169 173 172 171 176 198 184 169 155 139 148 178 200 186 182 191 203 161 140 143 350 311 314 224 223 245 271 271 214 132 34 21 325 309 319 262 299 305 301 296 311 326 328
173 168 168 178 183 198 200 183 166 152 164 193 223 231 218 211 210 189 167 172 211 259 269 327 341 330 324 313 286 191 187 193 251 288 281 251 293 324 314 290 299 311 318
Height
1551 1550 1549 1549 1549 1548 1548 1548 1548 1548 1548 1549 1549 1549 1549 1550 1550 1550 1549 1549 1549 1548 1548 1548 1547 1547 1546 1546 1545 1544 1543 1542 1541 1541 1541 1540 1540 1540 1541 1541 1542 1541 1541
1552 1552 1551 1550 1550 1550 1550 1550 1550 1550 1550 1551 1551 1551 1551 1552 1552 1551 1551 1551 1550 1550 1549 1549 1549 1548 1548 1547 1546 1545 1544 1543 1542 1541 1541 1540 1540 1539 1540 1540 1540 1540 1539
1554 1553 1552 1552 1552 1551 1551 1551 1552 1552 1552 1553 1553 1553 1553 1554 1554 1553 1553 1552 1552 1552 1551 1551 1551 1550 1549 1548 1547 1546 1545 1543 1542 1541 1540 1540 1539 1538 1538 1538 1539 1539 1539
1556 1555 1554 1553 1553 1553 1553 1553 1553 1554 1554 1555 1555 1555 1556 1556 1556 1556 1555 1555 1554 1554 1553 1553 1552 1552 1551 1550 1549 1547 1545 1544 1542 1541 1540 1539 1538 1537 1536 1536 1536 1537 1538
1557 1556 1556 1555 1555 1555 1555 1555 1555 1555 1556 1556 1557 1557 1558 1558 1558 1558 1557 1557 1556 1556 1555 1555 1554 1553 1552 1551 1550 1548 1546 1544 1543 1542 1541 1539 1538 1536 1534 1532 1532 1534 1535
1559 1558 1557 1557 1557 1556 1556 1556 1557 1557 1557 1558 1559 1559 1559 1560 1560 1560 1559 1559 1558 1558 1557 1556 1556 1555 1554 1552 1551 1549 1547 1545 1543 1542 1541 1540 1538 1535 1530 1528 1529 1530 1531
1561 1560 1559 1559 1558 1558 1558 1558 1558 1559 1559 1560 1560 1561 1561 1562 1562 1562 1561 1561 1560 1560 1559 1558 1557 1556 1555 1554 1552 1550 1548 1545 1544 1543 1542 1541 1539 1536 1531 1529 1530 1529 1529
1562 1562 1561 1561 1560 1560 1560 1560 1560 1560 1561 1561 1562 1562 1563 1565 1564 1564 1564 1563 1562 1562 1561 1560 1559 1558 1557 1555 1553 1551 1547 1545 1545 1545 1544 1543 1542 1539 1536 1534 1534 1533 1532
1565 1564 1563 1563 1562 1562 1562 1562 1562 1562 1562 1563 1563 1564 1564 1565 1566 1567 1566 1565 1564 1564 1563 1562 1561 1559 1558 1556 1555 1552 1549 1547 1546 1546 1546 1545 1544 1542 1541 1539 1538 1537 1536
1567 1566 1565 1565 1564 1564 1564 1564 1564 1564 1564 1565 1565 1565 1566 1566 1566 1568 1568 1567 1567 1566 1565 1564 1563 1562 1560 1558 1557 1555 1552 1550 1549 1548 1548 1547 1546 1545 1544 1543 1542 1540 1539
1568 1568 1567 1567 1566 1566 1566 1566 1566 1566 1566 1566 1566 1566 1566 1567 1567 1568 1568 1569 1568 1568 1567 1566 1564 1563 1562 1560 1558 1557 1555 1554 1552 1551 1550 1549 1548 1547 1546 1545 1544 1543 1542
1570 1570 1569 1568 1568 1568 1567 1567 1567 1567 1567 1568 1568 1568 1568 1568 1568 1568 1569 1569 1569 1569 1568 1568 1566 1565 1564 1562 1560 1559 1558 1556 1555 1553 1552 1551 1550 1549 1548 1547 1547 1546 1545
1571 1571 1571 1570 1570 1569 1569 1569 1569 1569 1569 1569 1569 1569 1569 1569 1569 1570 1570 1570 1570 1571 1570 1569 1568 1567 1565 1564 1562 1561 1559 1558 1556 1555 1554 1552 1551 1550 1550 1549 1548 1548 1547
1573 1572 1572 1572 1571 1571 1571 1571 1571 1571 1571 1570 1570 1570 1570 1570 1571 1571 1571 1571 1571 1571 1571 1570 1569 1568 1567 1565 1564 1563 1561 1559 1558 1557 1555 1554 1553 1552 1551 1550 1549 1548 1548
1574 1574 1573 1573 1573 1573 1573 1573 1572 1572 1572 1572 1572 1571 1571 1572 1572 1572 1572 1572 1572 1571 1571 1571 1570 1569 1568 1567 1565 1564 1562 1561 1559 1558 1557 1555 1554 1553 1552 1551 1550 1549 1548
1575 1575 1574 1574 1574 1574 1574 1574 1574 1573 1573 1573 1573 1573 1573 1573 1573 1573 1572 1572 1572 1572 1571 1571 1571 1570 1569 1568 1566 1565 1563 1562 1560 1559 1557 1556 1555 1554 1553 1551 1550 1549 1549
1575 1575 1575 1575 1575 1575 1575 1575 1575 1574 1574 1574 1574 1574 1574 1573 1573 1573 1573 1573 1572 1573 1572 1572 1571 1571 1570 1568 1567 1566 1564 1562 1561 1559 1558 1557 1555 1554 1553 1552 1551 1550 1549
1576 1576 1576 1576 1576 1576 1576 1576 1575 1575 1575 1575 1575 1574 1574 1574 1574 1574 1573 1573 1573 1573 1573 1572 1572 1571 1570 1569 1568 1566 1565 1563 1562 1560 1559 1557 1556 1554 1553 1552 1551 1549 1548
1576 1576 1576 1576 1576 1576 1576 1576 1576 1576 1576 1575 1575 1575 1575 1574 1574 1574 1574 1574 1574 1573 1573 1572 1572 1571 1570 1569 1568 1567 1565 1564 1562 1561 1559 1558 1556 1555 1553 1552 1550 1549 1548
1575 1576 1576 1576 1577 1577 1577 1577 1577 1576 1576 1576 1575 1575 1575 1575 1574 1574 1574 1574 1574 1573 1573 1572 1571 1571 1570 1569 1568 1566 1565 1564 1562 1561 1559 1558 1556 1555 1553 1551 1550 1548 1547
1575 1575 1576 1576 1576 1576 1576 1576 1576 1576 1576 1576 1576 1575 1575 1575 1575 1574 1574 1574 1573 1573 1572 1572 1571 1570 1569 1568 1567 1565 1564 1563 1561 1560 1558 1557 1556 1554 1552 1551 1549 1547 1545
1574 1574 1575 1575 1576 1576 1576 1576 1576 1576 1576 1576 1575 1575 1575 1575 1575 1574 1574 1573 1573 1573 1572 1571 1570 1569 1568 1567 1566 1565 1563 1561 1560 1559 1557 1556 1554 1552 1551 1549 1547 1545 1543
1572 1573 1573 1574 1574 1575 1575 1575 1575 1575 1575 1575 1575 1575 1574 1574 1574 1574 1573 1573 1572 1571 1571 1570 1569 1568 1567 1566 1565 1563 1562 1560 1558 1557 1555 1553 1552 1550 1549 1547 1545 1543 1541
1570 1571 1571 1572 1573 1573 1573 1573 1574 1574 1574 1574 1574 1574 1573 1573 1573 1572 1572 1571 1571 1570 1569 1568 1568 1567 1566 1564 1563 1562 1560 1559 1557 1555 1553 1551 1549 1547 1546 1544 1543 1541 1538
1567 1568 1569 1570 1570 1571 1571 1571 1572 1572 1572 1572 1572 1572 1572 1572 1571 1571 1570 1569 1569 1568 1567 1567 1566 1565 1563 1562 1561 1560 1558 1556 1554 1553 1551 1549 1546 1543 1541 1540 1539 1537 1535
1564 1566 1566 1567 1568 1568 1569 1569 1569 1569 1570 1570 1570 1570 1570 1569 1569 1568 1568 1567 1566 1566 1565 1564 1563 1562 1561 1560 1559 1557 1555 1553 1551 1549 1547 1545 1543 1540 1536 1534 1534 1532 1530